Regional Weather Roundup
Issued by NWS Green Bay, WI

Home | Current Version | Previous Version | Graphics & Text | Print | Product List | Glossary Off
Versions: 1 2 3 4 5 6 7 8 9 10 11 12 13 14 15 16 17 18 19 20 21 22 23 24 25 26 27 28 29 30 31 32 33 34 35 36 37 38 39 40 41 42 43 44 45 46 47 48 49 50

000
ASUS43 KGRB 231000
RWRGRB

NORTH-CENTRAL AND NORTHEAST WISCONSIN REGIONAL WEATHER ROUNDUP
NATIONAL WEATHER SERVICE GREEN BAY WI
400 AM CST THU FEB 23 2017

WIZ005-009-010>012-018-019-231100-
NORTH CENTRAL WISCONSIN

CITY           SKY/WX    TMP DP  RH WIND       PRES   REMARKS
IRONWOOD       LGT SNOW  31  31 100 N9        29.81R FOG
MANITOWISH WTR NOT AVBL
ARBOR VITAE    NOT AVBL
EAGLE RIVER    NOT AVBL
LAND O LAKES   CLOUDY    31  29  94 N12       29.75R
RHINELANDER    CLOUDY    33  30  88 NW6G17    29.75R
PHILLIPS       CLOUDY    32  31  96 N5        29.78R
ANTIGO         NOT AVBL
TOMAHAWK       NOT AVBL
MERRILL        NOT AVBL
$$

WIZ013-073-231100-
NORTHEAST WISCONSIN

CITY           SKY/WX    TMP DP  RH WIND       PRES   REMARKS
IRON MOUNTAIN  CLOUDY    34  29  82 NW12      29.69R
MARINETTE      CLOUDY    38  33  82 N12       29.67R
OCONTO         CLOUDY    38  34  83 N7        29.67R
$$

WIZ017-030-035>037-045-231100-
CENTRAL WISCONSIN

CITY           SKY/WX    TMP DP  RH WIND       PRES   REMARKS
MEDFORD        NOT AVBL
WAUSAU         CLOUDY    36  31  82 N14G21    29.71R
MOSINEE        CLOUDY    36  34  93 N15G21    29.72R
MARSHFIELD     CLOUDY    36  31  82 N15G21    29.72R
WISC RAPIDS    CLOUDY    40  36  86 N12G21    29.72R
STEVENS POINT  NOT AVBL
WAUPACA        CLOUDY    44  40  87 NW10G16   29.69R
SHAWANO        CLOUDY    41  37  88 N5        29.70R
CLINTONVILLE   CLOUDY    37  36  93 CALM      29.69R
WAUTOMA        CLOUDY    43  38  82 NW16G24   29.68R
$$

WIZ038-039-048-051-231100-
FOX VALLEY

CITY           SKY/WX    TMP DP  RH WIND       PRES   REMARKS
NWS GREEN BAY  CLOUDY    39  39 100 N6        29.67R FOG
APPLETON       CLOUDY    39  36  87 N7        29.64R
OSHKOSH        CLOUDY    45  40  82 NW13G23   29.65R
FOND DU LAC    MOCLDY    46  39  76 NW14      29.66R
$$

WIZ022-050-052-231100-
EAST CENTRAL WISCONSIN

CITY           SKY/WX    TMP DP  RH WIND       PRES   REMARKS
EPHRAIM        NOT AVBL
WASHINGTON ISL CLOUDY    35  32  90 N12       29.64R
STURGEON BAY   CLOUDY    37  34  89 N10       29.66R
MANITOWOC      NOT AVBL
SHEBOYGAN      PTCLDY    45  39  79 W10       29.65R
$$

LMZ563-521-522-541>543-231100-
LAKESHORE

STATION/POSITION TIME  TEMP    WIND        PRES    VSBY  WAVE
                       AIR SEA DIR/SP/G                  HT/PER
                 (UTC) (F)     (DEG/KT/KT) (MB)    (MI)  (FT/S)
SHEBOYGAN LKSHOR 0900   50     270/ 14/ 17 1002.7R
KEWAUNEE LKSHORE 0930   39     350/  7/ 10 1003.5R
NORTHPORT PIER   0940   35     310/ 12/ 15 1004.1R
SISTER BAY LKSHO 0905   35     340/ 12/ 15   N/A
CHAMBERS ISLAND  0940   35     320/  9/ 10 1004.1R
MENOMINEE LKSHOR 0930   38     320/ 15/ 19 1003.3R
$$



USA.gov is the U.S. government's official web portal to all federal, state and local government web resources and services.